Timestamp,T1_Demand_MW,T1_Demand_MVAr,T1_Demand_MVA,T1_Gen_MW,T1_Gen_MVAr,T1_Gen_MVA,T1_Import_MW,T1_Import_MVAr,T1_Import_MVA,T2_Demand_MW,T2_Demand_MVAr,T2_Demand_MVA,T2_Gen_MW,T2_Gen_MVAr,T2_Gen_MVA,T2_Import_MW,T2_Import_MVAr,T2_Import_MVA
2019-03-31 00:30:00,2.7,0.22,2.7089481353,0.0,0.0,0.0,2.7,0.22,2.7089481353,1.46,0.51,1.5465122049,0.0,0.0,0.0,1.46,0.51,1.5465122049
2019-03-31 01:00:00,2.67,0.22,2.6790483385,0.0,0.0,0.0,2.67,0.22,2.6790483385,1.53,0.51,1.6127616067,0.0,0.0,0.0,1.53,0.51,1.6127616067
2019-03-31 01:30:00,-0.003,-0.003,0.0042426407000000005,0.0,0.0,0.0,-0.003,-0.003,0.0042426407000000005,-0.003,0.003,0.0042426407000000005,0.0,0.0,0.0,-0.003,0.003,0.0042426407000000005
2019-03-31 02:00:00,-0.003,-0.003,0.0042426407000000005,0.0,0.0,0.0,-0.003,-0.003,0.0042426407000000005,-0.003,0.003,0.0042426407000000005,0.0,0.0,0.0,-0.003,0.003,0.0042426407000000005
2019-03-31 02:30:00,2.6,0.22,2.6092910915000003,0.0,0.0,0.0,2.6,0.22,2.6092910915000003,1.45,0.51,1.5370751446000002,0.0,0.0,0.0,1.45,0.51,1.5370751446000002
2019-03-31 03:00:00,2.5700000000000003,0.22,2.5793991548,0.0,0.0,0.0,2.5700000000000003,0.22,2.5793991548,1.42,0.51,1.5088074760999999,0.0,0.0,0.0,1.42,0.51,1.5088074760999999
2019-03-31 03:30:00,2.5700000000000003,0.22,2.5793991548,0.0,0.0,0.0,2.5700000000000003,0.22,2.5793991548,1.3900000000000001,0.52,1.484082208,0.0,0.0,0.0,1.3900000000000001,0.52,1.484082208
2019-03-31 04:00:00,2.54,0.22,2.5495097568,0.0,0.0,0.0,2.54,0.22,2.5495097568,1.32,0.54,1.4261837189,0.0,0.0,0.0,1.32,0.54,1.4261837189
2019-03-31 04:30:00,2.5,0.22,2.5096613317000003,0.0,0.0,0.0,2.5,0.22,2.5096613317000003,1.32,0.54,1.4261837189,0.0,0.0,0.0,1.32,0.54,1.4261837189
2019-03-31 05:00:00,2.43,0.22,2.4399385238,0.0,0.0,0.0,2.43,0.22,2.4399385238,1.32,0.54,1.4261837189,0.0,0.0,0.0,1.32,0.54,1.4261837189
2019-03-31 05:30:00,2.56,0.22,2.5694357357,0.0,0.0,0.0,2.56,0.22,2.5694357357,1.31,0.54,1.4169333082,0.0,0.0,0.0,1.31,0.54,1.4169333082
2019-03-31 06:00:00,2.59,0.22,2.5993268359,0.0,0.0,0.0,2.59,0.22,2.5993268359,1.28,0.54,1.3892443989,0.0,0.0,0.0,1.28,0.54,1.3892443989
2019-03-31 06:30:00,2.66,0.25,2.671722291,0.0,0.0,0.0,2.66,0.25,2.671722291,1.33,0.51,1.4244297104,0.0,0.0,0.0,1.33,0.51,1.4244297104
2019-03-31 07:00:00,2.66,0.25,2.671722291,0.0,0.0,0.0,2.66,0.25,2.671722291,1.33,0.53,1.4317122616,0.0,0.0,0.0,1.33,0.53,1.4317122616
2019-03-31 07:30:00,2.77096,0.28028000000000003,2.7850989568999998,0.0009600000000000001,0.00028000000000000003,0.001,2.77,0.28,2.7841156585,1.3900000000000001,0.54,1.4912075644,0.0,0.0,0.0,1.3900000000000001,0.54,1.4912075644
2019-03-31 08:00:00,2.90192,0.28056000000000003,2.9154508399,0.0019200000000000003,0.0005600000000000001,0.002,2.9,0.28,2.9134858846,1.50096,0.5002800000000001,1.5821381103,0.0009600000000000001,0.00028000000000000003,0.001,1.5,0.5,1.5811388301
2019-03-31 08:30:00,3.1348,0.2414,3.1440809468,0.0048000000000000004,0.0014,0.005,3.13,0.24,3.139187793,1.6800000000000002,0.49,1.75,0.0,0.0,0.0,1.6800000000000002,0.49,1.75
2019-03-31 09:00:00,3.30768,0.25224,3.3172838287,0.007680000000000001,0.0022400000000000002,0.008,3.3,0.25,3.3094561487,1.8599999999999999,0.49,1.9234604232999999,0.0,0.0,0.0,1.8599999999999999,0.49,1.9234604232999999
2019-03-31 09:30:00,3.51576,0.28168000000000004,3.5270259426,0.00576,0.00168,0.006,3.51,0.28,3.5211503802,2.08,0.44,2.1260291625,0.0,0.0,0.0,2.08,0.44,2.1260291625
2019-03-31 10:00:00,3.63536,0.32448000000000005,3.6498122691,0.015360000000000002,0.0044800000000000005,0.016,3.62,0.32,3.6341161236,2.17,0.44,2.2141589825,0.0,0.0,0.0,2.17,0.44,2.2141589825
2019-03-31 10:30:00,3.7092,0.3256,3.7234634415,0.019200000000000002,0.0056,0.02,3.69,0.32,3.703849349,2.33,0.42,2.3675514778,0.0,0.0,0.0,2.33,0.42,2.3675514778
2019-03-31 11:00:00,3.70072,0.32896000000000003,3.7153119923,0.030720000000000004,0.008960000000000001,0.032,3.67,0.32,3.6839245378000003,2.2800000000000002,0.42,2.3183614904,0.0,0.0,0.0,2.2800000000000002,0.42,2.3183614904
2019-03-31 11:30:00,3.69208,0.32644,3.7064832119,0.022080000000000002,0.00644,0.023,3.67,0.32,3.6839245378000003,2.22,0.42,2.2593804460999998,0.0,0.0,0.0,2.22,0.42,2.2593804460999998
2019-03-31 12:00:00,3.66632,0.32476000000000005,3.6806754,0.01632,0.00476,0.017,3.65,0.32,3.6640005459,2.25,0.43,2.2907204107,0.0,0.0,0.0,2.25,0.43,2.2907204107
2019-03-31 12:30:00,3.71304,0.32672,3.7273867521,0.02304,0.00672,0.024,3.69,0.32,3.703849349,2.18,0.41000000000000003,2.2182200071000002,0.0,0.0,0.0,2.18,0.41000000000000003,2.2182200071000002
2019-03-31 13:00:00,3.7588,0.3284,3.773118604,0.028800000000000003,0.008400000000000001,0.03,3.73,0.32,3.743701377,2.2,0.44,2.243568586,0.0,0.0,0.0,2.2,0.44,2.243568586
2019-03-31 13:30:00,3.6072800000000003,0.29504,3.6193255725,0.01728,0.00504,0.018000000000000002,3.59,0.29,3.6016940459,2.17,0.47000000000000003,2.2203152929,0.0,0.0,0.0,2.17,0.47000000000000003,2.2203152929
2019-03-31 14:00:00,3.5153600000000003,0.29448,3.5276726606,0.015360000000000002,0.0044800000000000005,0.016,3.5,0.29,3.5119937358,2.05,0.49,2.107747613,0.0,0.0,0.0,2.05,0.49,2.107747613
2019-03-31 14:30:00,3.57536,0.36448,3.593889926,0.015360000000000002,0.0044800000000000005,0.016,3.56,0.36,3.5781559496,1.98,0.49,2.0397303743,0.0,0.0,0.0,1.98,0.49,2.0397303743
2019-03-31 15:00:00,3.50152,0.36336,3.5203228261,0.01152,0.00336,0.012,3.49,0.36,3.5085182057,1.9,0.47000000000000003,1.9572685048,0.0,0.0,0.0,1.9,0.47000000000000003,1.9572685048
2019-03-31 15:30:00,3.3796,0.3628,3.3990175051,0.009600000000000001,0.0028,0.01,3.37,0.36,3.3891739407,1.97,0.46,2.0229928324,0.0,0.0,0.0,1.97,0.46,2.0229928324
2019-03-31 16:00:00,3.37864,0.36252,3.3980331075,0.00864,0.00252,0.009000000000000001,3.37,0.36,3.3891739407,2.04,0.43,2.0848261318,0.0,0.0,0.0,2.04,0.43,2.0848261318
2019-03-31 16:30:00,3.4996,0.33280000000000004,3.5153884565,0.009600000000000001,0.0028,0.01,3.49,0.33,3.5055670012,2.13,0.42,2.1710135882,0.0,0.0,0.0,2.13,0.42,2.1710135882
2019-03-31 17:00:00,3.5828800000000003,0.33084,3.5981223159,0.00288,0.00084,0.003,3.58,0.33,3.5951773253,2.22,0.42,2.2593804460999998,0.0,0.0,0.0,2.22,0.42,2.2593804460999998
2019-03-31 17:30:00,3.7009600000000002,0.36028000000000004,3.7184548673,0.0009600000000000001,0.00028000000000000003,0.001,3.7,0.36,3.7174722595,2.26,0.47000000000000003,2.3083543922,0.0,0.0,0.0,2.26,0.47000000000000003,2.3083543922
2019-03-31 18:00:00,3.7409600000000003,0.32028,3.7546452562,0.0009600000000000001,0.00028000000000000003,0.001,3.74,0.32,3.7536648758,2.29,0.45,2.3337951924,0.0,0.0,0.0,2.29,0.45,2.3337951924
2019-03-31 18:30:00,3.79,0.34,3.8052200988,0.0,0.0,0.0,3.79,0.34,3.8052200988,2.29,0.45,2.3337951924,0.0,0.0,0.0,2.29,0.45,2.3337951924
2019-03-31 19:00:00,3.77,0.27,3.779656069,0.0,0.0,0.0,3.77,0.27,3.779656069,2.38,0.43,2.418532613,0.0,0.0,0.0,2.38,0.43,2.418532613
2019-03-31 19:30:00,3.81,0.31,3.8225907445000002,0.0,0.0,0.0,3.81,0.31,3.8225907445000002,2.49,0.47000000000000003,2.5339692184000002,0.0,0.0,0.0,2.49,0.47000000000000003,2.5339692184000002
2019-03-31 20:00:00,3.93,0.37,3.9473788772000002,0.0,0.0,0.0,3.93,0.37,3.9473788772000002,2.52,0.48,2.5653069992,0.0,0.0,0.0,2.52,0.48,2.5653069992
2019-03-31 20:30:00,4.01,0.37,4.0270336477,0.0,0.0,0.0,4.01,0.37,4.0270336477,2.62,0.42,2.6534505836999998,0.0,0.0,0.0,2.62,0.42,2.6534505836999998
2019-03-31 21:00:00,3.91,0.37,3.9274673773,0.0,0.0,0.0,3.91,0.37,3.9274673773,2.64,0.42,2.6732003292,0.0,0.0,0.0,2.64,0.42,2.6732003292
2019-03-31 21:30:00,3.79,0.34,3.8052200988,0.0,0.0,0.0,3.79,0.34,3.8052200988,2.44096,0.45028,2.4821437912,0.0009600000000000001,0.00028000000000000003,0.001,2.44,0.45,2.4811489274
2019-03-31 22:00:00,3.5700000000000003,0.30000000000000004,3.5825828672,0.0,0.0,0.0,3.5700000000000003,0.30000000000000004,3.5825828672,2.38,0.46,2.4240462042,0.0,0.0,0.0,2.38,0.46,2.4240462042
2019-03-31 22:30:00,3.41,0.32,3.4249817518,0.0,0.0,0.0,3.41,0.32,3.4249817518,2.14,0.46,2.1888809927,0.0,0.0,0.0,2.14,0.46,2.1888809927
2019-03-31 23:00:00,3.2,0.26,3.2105451251,0.0,0.0,0.0,3.2,0.26,3.2105451251,1.92,0.49,1.9815398053000002,0.0,0.0,0.0,1.92,0.49,1.9815398053000002
2019-03-31 23:30:00,2.98,0.26,2.9913207785,0.0,0.0,0.0,2.98,0.26,2.9913207785,1.6800000000000002,0.49,1.75,0.0,0.0,0.0,1.6800000000000002,0.49,1.75
2019-04-01 00:00:00,2.8,0.23,2.8094305473,0.0,0.0,0.0,2.8,0.23,2.8094305473,1.52,0.51,1.6032778923,0.0,0.0,0.0,1.52,0.51,1.6032778923
2019-04-01 00:30:00,2.67,0.23,2.6798880574,0.0,0.0,0.0,2.67,0.23,2.6798880574,1.42,0.49,1.5021651041,0.0,0.0,0.0,1.42,0.49,1.5021651041
2019-04-01 01:00:00,2.61,0.23,2.6201145013,0.0,0.0,0.0,2.61,0.23,2.6201145013,1.38,0.51,1.4712239802,0.0,0.0,0.0,1.38,0.51,1.4712239802
2019-04-01 01:30:00,2.61,0.23,2.6201145013,0.0,0.0,0.0,2.61,0.23,2.6201145013,1.31,0.52,1.4094325099,0.0,0.0,0.0,1.31,0.52,1.4094325099
2019-04-01 02:00:00,2.61,0.23,2.6201145013,0.0,0.0,0.0,2.61,0.23,2.6201145013,1.34,0.52,1.4373586887,0.0,0.0,0.0,1.34,0.52,1.4373586887
2019-04-01 02:30:00,2.55,0.23,2.5603515384,0.0,0.0,0.0,2.55,0.23,2.5603515384,1.3900000000000001,0.52,1.484082208,0.0,0.0,0.0,1.3900000000000001,0.52,1.484082208
2019-04-01 03:00:00,2.6,0.23,2.6101532522,0.0,0.0,0.0,2.6,0.23,2.6101532522,1.34,0.51,1.4337712509,0.0,0.0,0.0,1.34,0.51,1.4337712509
2019-04-01 03:30:00,2.6,0.23,2.6101532522,0.0,0.0,0.0,2.6,0.23,2.6101532522,1.38,0.51,1.4712239802,0.0,0.0,0.0,1.38,0.51,1.4712239802
2019-04-01 04:00:00,2.58,0.23,2.5902316498999998,0.0,0.0,0.0,2.58,0.23,2.5902316498999998,1.3599999999999999,0.49,1.4455794686,0.0,0.0,0.0,1.3599999999999999,0.49,1.4455794686
2019-04-01 04:30:00,2.55,0.23,2.5603515384,0.0,0.0,0.0,2.55,0.23,2.5603515384,1.49,0.46,1.5593909067,0.0,0.0,0.0,1.49,0.46,1.5593909067
2019-04-01 05:00:00,2.6,0.23,2.6101532522,0.0,0.0,0.0,2.6,0.23,2.6101532522,1.54,0.47000000000000003,1.6101242188,0.0,0.0,0.0,1.54,0.47000000000000003,1.6101242188
2019-04-01 05:30:00,2.73,0.23,2.7396715132000002,0.0,0.0,0.0,2.73,0.23,2.7396715132000002,1.53,0.47000000000000003,1.6005624012,0.0,0.0,0.0,1.53,0.47000000000000003,1.6005624012
2019-04-01 06:00:00,2.87,0.23,2.8792012781,0.0,0.0,0.0,2.87,0.23,2.8792012781,1.74,0.41000000000000003,1.7876520914,0.0,0.0,0.0,1.74,0.41000000000000003,1.7876520914
2019-04-01 06:30:00,3.09,0.27,3.1017736861,0.0,0.0,0.0,3.09,0.27,3.1017736861,2.07,0.27,2.0875344309,0.0,0.0,0.0,2.07,0.27,2.0875344309
2019-04-01 07:00:00,3.31,0.29,3.3226796415,0.0,0.0,0.0,3.31,0.29,3.3226796415,2.29,0.25,2.3036058691,0.0,0.0,0.0,2.29,0.25,2.3036058691
2019-04-01 07:30:00,3.75096,0.42028000000000004,3.7744319043,0.0009600000000000001,0.00028000000000000003,0.001,3.75,0.42,3.7734467003,2.73,0.19,2.7366037346,0.0,0.0,0.0,2.73,0.19,2.7366037346
2019-04-01 08:00:00,4.00192,0.53056,4.0369366604,0.0019200000000000003,0.0005600000000000001,0.002,4.0,0.53,4.0349597272,2.76,0.14,2.7635484436,0.0,0.0,0.0,2.76,0.14,2.7635484436
2019-04-01 08:30:00,4.06192,0.5805600000000001,4.1031992396,0.0019200000000000003,0.0005600000000000001,0.002,4.06,0.58,4.1012193309,2.8200000000000003,0.1,2.8217724926,0.0,0.0,0.0,2.8200000000000003,0.1,2.8217724926
2019-04-01 09:00:00,4.50384,0.5811200000000001,4.5411755306,0.0038400000000000005,0.0011200000000000001,0.004,4.5,0.58,4.5372238207999995,2.77,0.04,2.7702887936,0.0,0.0,0.0,2.77,0.04,2.7702887936
2019-04-01 09:30:00,5.71384,0.9411200000000001,5.7908267458000005,0.0038400000000000005,0.0011200000000000001,0.004,5.71,0.9400000000000001,5.7868557957,2.84,-0.13,2.8429737952,0.0,0.0,0.0,2.84,-0.13,2.8429737952
2019-04-01 10:00:00,5.55152,0.9733600000000001,5.6362047514,0.01152,0.00336,0.012,5.54,0.97,5.6242777314,2.81,0.0,2.81,0.0,0.0,0.0,2.81,0.0,2.81
2019-04-01 10:30:00,5.39304,0.97672,5.4807720624,0.02304,0.00672,0.024,5.37,0.97,5.4569038841,2.79,0.08,2.7911467177000002,0.0,0.0,0.0,2.79,0.08,2.7911467177000002
2019-04-01 11:00:00,5.2588,0.9784,5.3490414094,0.028800000000000003,0.008400000000000001,0.03,5.23,0.97,5.3191916679,2.7,-0.04,2.70029628,0.0,0.0,0.0,2.7,-0.04,2.70029628
2019-04-01 11:30:00,5.16264,0.9295200000000001,5.2456514562,0.03264,0.00952,0.034,5.13,0.92,5.2118422846,2.6,0.07,2.600942137,0.0,0.0,0.0,2.6,0.07,2.600942137
2019-04-01 12:00:00,5.06456,0.9000800000000001,5.1439199061,0.03456,0.01008,0.036000000000000004,5.03,0.89,5.1081307736,2.6,0.08,2.6012304781,0.0,0.0,0.0,2.6,0.08,2.6012304781
2019-04-01 12:30:00,4.98456,0.9200800000000001,5.068765688,0.03456,0.01008,0.036000000000000004,4.95,0.91,5.0329514204,2.64,0.13,2.6431988196000002,0.0,0.0,0.0,2.64,0.13,2.6431988196000002
2019-04-01 13:00:00,4.89648,0.9206400000000001,4.9822780332,0.036480000000000005,0.01064,0.038,4.86,0.91,4.944461548,2.55,0.15,2.5544079549000003,0.0,0.0,0.0,2.55,0.15,2.5544079549000003
2019-04-01 13:30:00,4.80744,0.7809200000000001,4.8704533054,0.03744,0.010920000000000001,0.039,4.77,0.77,4.8317491657,2.52096,0.16028,2.5260500787,0.0009600000000000001,0.00028000000000000003,0.001,2.52,0.16,2.5250742563
2019-04-01 14:00:00,4.8064800000000005,0.8606400000000001,4.8829244516,0.036480000000000005,0.01064,0.038,4.77,0.85,4.8451418968,2.52,0.05,2.5204959829,0.0,0.0,0.0,2.52,0.05,2.5204959829
2019-04-01 14:30:00,4.8436,0.9398000000000001,4.933932002,0.033600000000000005,0.0098,0.035,4.8100000000000005,0.93,4.8990815466,2.58,-0.09,2.5815692902,0.0,0.0,0.0,2.58,-0.09,2.5815692902
2019-04-01 15:00:00,4.76264,0.93952,4.8544245385,0.03264,0.00952,0.034,4.73,0.93,4.8205601334,2.51,0.07,2.5109759059,0.0,0.0,0.0,2.51,0.07,2.5109759059
2019-04-01 15:30:00,4.33072,0.80896,4.4056273106,0.030720000000000004,0.008960000000000001,0.032,4.3,0.8,4.3737855457,2.44,0.13,2.4434606606,0.0,0.0,0.0,2.44,0.13,2.4434606606
2019-04-01 16:00:00,3.57784,0.5881200000000001,3.6258549612,0.027840000000000004,0.00812,0.029,3.55,0.58,3.5970682507,2.5300000000000002,0.18,2.5363950796,0.0,0.0,0.0,2.5300000000000002,0.18,2.5363950796
2019-04-01 16:30:00,3.7039999999999997,0.5670000000000001,3.7471462475,0.024,0.007,0.025,3.68,0.56,3.7223648397,2.62,0.18,2.6261759271000003,0.0,0.0,0.0,2.62,0.18,2.6261759271000003
2019-04-01 17:00:00,3.82824,0.51532,3.8627679454,0.018240000000000003,0.00532,0.019,3.81,0.51,3.8439823101,2.64,0.23,2.65,0.0,0.0,0.0,2.64,0.23,2.65
2019-04-01 17:30:00,3.86152,0.45336000000000004,3.8880421808000003,0.01152,0.00336,0.012,3.85,0.45,3.8762094887,2.85,0.23,2.8592656400000003,0.0,0.0,0.0,2.85,0.23,2.8592656400000003
2019-04-01 18:00:00,3.94768,0.45224000000000003,3.9734995155,0.007680000000000001,0.0022400000000000002,0.008,3.94,0.45,3.9656147064000002,2.87,0.26,2.8817529388,0.0,0.0,0.0,2.87,0.26,2.8817529388
2019-04-01 18:30:00,4.12288,0.45084,4.1474565941,0.00288,0.00084,0.003,4.12,0.45,4.1445023827,2.83,0.31,2.8469281691,0.0,0.0,0.0,2.83,0.31,2.8469281691
2019-04-01 19:00:00,4.10192,0.43056000000000005,4.124455067,0.0019200000000000003,0.0005600000000000001,0.002,4.1,0.43,4.1224871134,2.83,0.31,2.8469281691,0.0,0.0,0.0,2.83,0.31,2.8469281691
2019-04-01 19:30:00,4.04096,0.41028000000000003,4.061734531,0.0009600000000000001,0.00028000000000000003,0.001,4.04,0.41000000000000003,4.060751162,2.86,0.31,2.8767516403,0.0,0.0,0.0,2.86,0.31,2.8767516403
2019-04-01 20:00:00,4.04,0.41000000000000003,4.060751162,0.0,0.0,0.0,4.04,0.41000000000000003,4.060751162,2.81,0.35000000000000003,2.8317132623,0.0,0.0,0.0,2.81,0.35000000000000003,2.8317132623
2019-04-01 20:30:00,4.11,0.41000000000000003,4.1303994964,0.0,0.0,0.0,4.11,0.41000000000000003,4.1303994964,2.77,0.32,2.7884224931,0.0,0.0,0.0,2.77,0.32,2.7884224931
2019-04-01 21:00:00,4.08,0.37,4.0967426085,0.0,0.0,0.0,4.08,0.37,4.0967426085,2.68,0.35000000000000003,2.7027578508,0.0,0.0,0.0,2.68,0.35000000000000003,2.7027578508
2019-04-01 21:30:00,3.96,0.34,3.974569159,0.0,0.0,0.0,3.96,0.34,3.974569159,2.68,0.35000000000000003,2.7027578508,0.0,0.0,0.0,2.68,0.35000000000000003,2.7027578508
2019-04-01 22:00:00,3.73,0.31,3.7428598691,0.0,0.0,0.0,3.73,0.31,3.7428598691,2.46,0.34,2.4833847869,0.0,0.0,0.0,2.46,0.34,2.4833847869
2019-04-01 22:30:00,3.5,0.36,3.5184655747,0.0,0.0,0.0,3.5,0.36,3.5184655747,2.21,0.39,2.2441479452,0.0,0.0,0.0,2.21,0.39,2.2441479452
2019-04-01 23:00:00,3.22,0.28,3.2321509865999998,0.0,0.0,0.0,3.22,0.28,3.2321509865999998,1.98,0.39,2.0180436071,0.0,0.0,0.0,1.98,0.39,2.0180436071
2019-04-01 23:30:00,2.96,0.22,2.9681644159,0.0,0.0,0.0,2.96,0.22,2.9681644159,1.72,0.41000000000000003,1.7681911661,0.0,0.0,0.0,1.72,0.41000000000000003,1.7681911661
2019-04-02 00:00:00,2.7800000000000002,0.22,2.7886914494,0.0,0.0,0.0,2.7800000000000002,0.22,2.7886914494,1.58,0.41000000000000003,1.6323296236,0.0,0.0,0.0,1.58,0.41000000000000003,1.6323296236
2019-04-02 00:30:00,2.62,0.22,2.6292204168,0.0,0.0,0.0,2.62,0.22,2.6292204168,1.5,0.41000000000000003,1.5550241156,0.0,0.0,0.0,1.5,0.41000000000000003,1.5550241156
2019-04-02 01:00:00,2.55,0.22,2.5594726019,0.0,0.0,0.0,2.55,0.22,2.5594726019,1.45,0.41000000000000003,1.5068510212000001,0.0,0.0,0.0,1.45,0.41000000000000003,1.5068510212000001
2019-04-02 01:30:00,2.6,0.22,2.6092910915000003,0.0,0.0,0.0,2.6,0.22,2.6092910915000003,1.4100000000000001,0.41000000000000003,1.4684004903,0.0,0.0,0.0,1.4100000000000001,0.41000000000000003,1.4684004903
2019-04-02 02:00:00,2.56,0.22,2.5694357357,0.0,0.0,0.0,2.56,0.22,2.5694357357,1.47,0.41000000000000003,1.5261061562,0.0,0.0,0.0,1.47,0.41000000000000003,1.5261061562
2019-04-02 02:30:00,2.49,0.22,2.499699982,0.0,0.0,0.0,2.49,0.22,2.499699982,1.48096,0.40028,1.5341012353,0.0009600000000000001,0.00028000000000000003,0.001,1.48,0.4,1.5331014317
2019-04-02 03:00:00,2.52,0.22,2.5295849462,0.0,0.0,0.0,2.52,0.22,2.5295849462,1.45,0.42,1.5096025967,0.0,0.0,0.0,1.45,0.42,1.5096025967
2019-04-02 03:30:00,2.5,0.22,2.5096613317000003,0.0,0.0,0.0,2.5,0.22,2.5096613317000003,1.3900000000000001,0.43,1.4549914089,0.0,0.0,0.0,1.3900000000000001,0.43,1.4549914089
2019-04-02 04:00:00,2.5,0.22,2.5096613317000003,0.0,0.0,0.0,2.5,0.22,2.5096613317000003,1.3900000000000001,0.43,1.4549914089,0.0,0.0,0.0,1.3900000000000001,0.43,1.4549914089
2019-04-02 04:30:00,2.48,0.22,2.4897389421,0.0,0.0,0.0,2.48,0.22,2.4897389421,1.45,0.43,1.5124152869,0.0,0.0,0.0,1.45,0.43,1.5124152869
2019-04-02 05:00:00,2.51,0.22,2.5196229877,0.0,0.0,0.0,2.51,0.22,2.5196229877,1.5,0.41000000000000003,1.5550241156,0.0,0.0,0.0,1.5,0.41000000000000003,1.5550241156
2019-04-02 05:30:00,2.69,0.22,2.6989812893,0.0,0.0,0.0,2.69,0.22,2.6989812893,1.55,0.41000000000000003,1.6033090781000001,0.0,0.0,0.0,1.55,0.41000000000000003,1.6033090781000001
2019-04-02 06:00:00,2.88,0.24,2.8899826989,0.0,0.0,0.0,2.88,0.24,2.8899826989,1.76,0.37,1.7984715733,0.0,0.0,0.0,1.76,0.37,1.7984715733
2019-04-02 06:30:00,3.16,0.29,3.1732790612,0.0,0.0,0.0,3.16,0.29,3.1732790612,2.04,0.29,2.0605096457,0.0,0.0,0.0,2.04,0.29,2.0605096457
2019-04-02 07:00:00,3.42,0.32,3.4349381363,0.0,0.0,0.0,3.42,0.32,3.4349381363,2.29,0.23,2.3015212361,0.0,0.0,0.0,2.29,0.23,2.3015212361
2019-04-02 07:30:00,3.76,0.32,3.7735924528,0.0,0.0,0.0,3.76,0.32,3.7735924528,2.69,0.21,2.6981845749,0.0,0.0,0.0,2.69,0.21,2.6981845749
2019-04-02 08:00:00,3.9,0.46,3.9270345046,0.0,0.0,0.0,3.9,0.46,3.9270345046,2.81,0.12,2.8125611104,0.0,0.0,0.0,2.81,0.12,2.8125611104
2019-04-02 08:30:00,4.03096,0.58028,4.0725131553,0.0009600000000000001,0.00028000000000000003,0.001,4.03,0.58,4.0715230565,2.88,-0.07,2.8808505688,0.0,0.0,0.0,2.88,-0.07,2.8808505688
2019-04-02 09:00:00,4.04192,0.62056,4.0892801322,0.0019200000000000003,0.0005600000000000001,0.002,4.04,0.62,4.0872973956,2.73,-0.05,2.7304578371,0.0,0.0,0.0,2.73,-0.05,2.7304578371
2019-04-02 09:30:00,4.11192,0.64056,4.161514532,0.0019200000000000003,0.0005600000000000001,0.002,4.11,0.64,4.1595312236,2.83,-0.08,2.8311305162,0.0,0.0,0.0,2.83,-0.08,2.8311305162
2019-04-02 10:00:00,4.11384,0.66112,4.1666244371,0.0038400000000000005,0.0011200000000000001,0.004,4.11,0.66,4.1626554025,2.92,-0.14,2.9233542379,0.0,0.0,0.0,2.92,-0.14,2.9233542379
2019-04-02 10:30:00,4.11576,0.6816800000000001,4.1718302938,0.00576,0.00168,0.006,4.11,0.68,4.1658732578,2.9699999999999998,-0.14,2.9732978324,0.0,0.0,0.0,2.9699999999999998,-0.14,2.9732978324
2019-04-02 11:00:00,3.9776800000000003,0.60224,4.0230127019,0.007680000000000001,0.0022400000000000002,0.008,3.9699999999999998,0.6000000000000001,4.0150840589,2.90096,-0.15972,2.9053535757,0.0009600000000000001,0.00028000000000000003,0.001,2.9,-0.16,2.9044104393
2019-04-02 11:30:00,3.98056,0.6530800000000001,4.0337787991,0.010560000000000002,0.0030800000000000003,0.011,3.9699999999999998,0.65,4.0228596794,2.9,-0.16,2.9044104393,0.0,0.0,0.0,2.9,-0.16,2.9044104393
2019-04-02 12:00:00,4.08864,0.67252,4.1435806014,0.00864,0.00252,0.009000000000000001,4.08,0.67,4.1346462968,2.92,-0.17,2.9249444439000003,0.0,0.0,0.0,2.92,-0.17,2.9249444439000003
2019-04-02 12:30:00,3.94688,0.6278400000000001,3.9965040723,0.02688,0.007840000000000001,0.028,3.92,0.62,3.9687277558,2.88,-0.15,2.8839036045,0.0,0.0,0.0,2.88,-0.15,2.8839036045
2019-04-02 13:00:00,3.9953600000000002,0.62448,4.0438690384000004,0.015360000000000002,0.0044800000000000005,0.016,3.98,0.62,4.0280019861,2.9,-0.14,2.9033773437,0.0,0.0,0.0,2.9,-0.14,2.9033773437
2019-04-02 13:30:00,3.83168,0.48924000000000006,3.8627875168,0.03168,0.00924,0.033,3.8,0.48,3.8301958174,2.73,-0.08,2.7311719096,0.0,0.0,0.0,2.73,-0.08,2.7311719096
2019-04-02 14:00:00,3.794,0.437,3.8190843143,0.024,0.007,0.025,3.77,0.43,3.7944433056999998,2.65,0.06,2.6506791583,0.0,0.0,0.0,2.65,0.06,2.6506791583
2019-04-02 14:30:00,3.77304,0.5267200000000001,3.8096279083,0.02304,0.00672,0.024,3.75,0.52,3.7858816675,2.67,-0.01,2.6700187265,0.0,0.0,0.0,2.67,-0.01,2.6700187265
2019-04-02 15:00:00,3.82672,0.5219600000000001,3.8621533113,0.00672,0.0019600000000000004,0.007,3.8200000000000003,0.52,3.8552302136,2.76,0.01,2.7600181159,0.0,0.0,0.0,2.76,0.01,2.7600181159
2019-04-02 15:30:00,3.82864,0.55252,3.8683022891,0.00864,0.00252,0.009000000000000001,3.8200000000000003,0.55,3.8593911437,2.7199999999999998,-0.03,2.7201654361000003,0.0,0.0,0.0,2.7199999999999998,-0.03,2.7201654361000003
2019-04-02 16:00:00,3.7188,0.5584,3.7604898617,0.028800000000000003,0.008400000000000001,0.03,3.69,0.55,3.7307639968,2.7199999999999998,0.14,2.7236005581000002,0.0,0.0,0.0,2.7199999999999998,0.14,2.7236005581000002
2019-04-02 16:30:00,3.92864,0.5125200000000001,3.961929959,0.00864,0.00252,0.009000000000000001,3.92,0.51,3.9530368073,2.8200000000000003,0.14,2.8234730387,0.0,0.0,0.0,2.8200000000000003,0.14,2.8234730387
2019-04-02 17:00:00,4.1148,0.5114000000000001,4.1464574036,0.0048000000000000004,0.0014,0.005,4.11,0.51,4.1415214596,3.06096,0.21028000000000002,3.0681743432,0.0009600000000000001,0.00028000000000000003,0.001,3.06,0.21,3.0671974178
2019-04-02 17:30:00,4.04152,0.41336000000000006,4.0626038941000004,0.01152,0.00336,0.012,4.03,0.41000000000000003,4.0508023897,3.2,0.18,3.2050585018,0.0,0.0,0.0,3.2,0.18,3.2050585018
2019-04-02 18:00:00,4.21,0.41000000000000003,4.2299172569,0.0,0.0,0.0,4.21,0.41000000000000003,4.2299172569,3.3,0.22,3.3073252032,0.0,0.0,0.0,3.3,0.22,3.3073252032
2019-04-02 18:30:00,4.51096,0.47028000000000003,4.5354077435,0.0009600000000000001,0.00028000000000000003,0.001,4.51,0.47000000000000003,4.5344238884,3.43,0.22,3.4370481521,0.0,0.0,0.0,3.43,0.22,3.4370481521
2019-04-02 19:00:00,4.4409600000000005,0.47028000000000003,4.4657909714,0.0009600000000000001,0.00028000000000000003,0.001,4.44,0.47000000000000003,4.4648068267,3.21,0.22,3.2175301086,0.0,0.0,0.0,3.21,0.22,3.2175301086
2019-04-02 19:30:00,4.28,0.42,4.3005581033,0.0,0.0,0.0,4.28,0.42,4.3005581033,3.05,0.30000000000000004,3.0647185841,0.0,0.0,0.0,3.05,0.30000000000000004,3.0647185841
2019-04-02 20:00:00,4.35,0.44,4.3721962444999996,0.0,0.0,0.0,4.35,0.44,4.3721962444999996,2.9699999999999998,0.30000000000000004,2.9851130632,0.0,0.0,0.0,2.9699999999999998,0.30000000000000004,2.9851130632
2019-04-02 20:30:00,4.31,0.38,4.3267193114,0.0,0.0,0.0,4.31,0.38,4.3267193114,2.87,0.26,2.8817529388,0.0,0.0,0.0,2.87,0.26,2.8817529388